Powrót do katalogu

COSMOS 1818 COOLANT

AktywnyLEO
NORAD 34175·DEBRIS·🇷🇺 Russia

Wystrzelony Feb 1, 1987 z Baikonur Cosmodrome

Loading…

Następne Przeloty (najbliższe 24 godziny)

TLE

NieaktualneSource: Space-Track

Epoka: Sep 2, 2026, 20:41 UTC

1 34175U 87011F   26245.86223206  .00000592  00000-0  20835-3 0  9992
2 34175  65.0019 298.3397 0022530 279.4091  80.4452 14.42560046101027

Śledź COSMOS 1818 COOLANT w czasie rzeczywistym z AllMySat

Download on the App Store